Home   Weather   Prague   Past weeks
Flag for Czech Republic

Past Weather in Prague, Czech Republic — Yesterday and Last 2 Weeks

Now
57 °F

Overcast.


Feels Like: 56 °F
Forecast: 60 / 49 °F
Wind: 7 mph from Southeast

Location: Václav Havel Airport Prague

Current Time: Oct 15, 2019 at 1:34:58 pm

Latest Report: Oct 15, 2019 at 1:00 pm


Visibility: N/A

Pressure: 29.83 "Hg

Humidity: 82%

Dew Point: 52 °F

Location of PragueLocation

Past Weather in Prague — Graph

°F

Prague Temperature Yesterday

Maximum temperature yesterday: 68 °F (at 3:00 pm)
Minimum temperature yesterday: 45 °F (at 6:30 am)
Average temperature yesterday: 56 °F

High & Low Weather Summary for the Past Weeks

 TemperatureHumidityPressure
High73 °F (Oct 13, 3:00 pm)100% (Oct 5, 12:10 am)30.12 "Hg (Oct 5, 12:10 am)
Low32 °F (Oct 7, 6:30 am)41% (Oct 7, 4:00 pm)29.56 "Hg (Oct 2, 4:30 am)
Average51 °F80%29.92 "Hg
* Reported Sep 30 12:00 pm — Oct 15 12:30 pm, Prague. Weather by CustomWeather, © 2019

Note: Actual official high and low records may vary slightly from our data, if they occured in-between our weather recording intervals... More about our weather records

Advertising

Prague Weather History for the Previous 24 Hours

Scroll right to see more
 ConditionsComfort  
Time TempWeatherWind HumidityBarometerVisibility
12:30 pm
Tue, Oct 15
57 °FOvercast.5 mph82%29.83 "HgN/A
12:00 pm57 °FOvercast.5 mph82%29.86 "HgN/A
11:30 am57 °FOvercast.7 mph88%29.86 "HgN/A
11:00 am57 °FOvercast.5 mph82%29.86 "Hg6 mi
10:30 am57 °FOvercast.5 mph82%29.86 "Hg5 mi
10:00 am57 °FOvercast.5 mph88%29.86 "Hg5 mi
9:30 am55 °FMore clouds than sun.3 mph88%29.86 "Hg5 mi
9:00 am55 °FMore clouds than sun.2 mph94%29.86 "Hg5 mi
8:30 am55 °FMore clouds than sun.3 mph94%29.86 "Hg5 mi
8:00 am55 °FMore clouds than sun.3 mph88%29.86 "Hg5 mi
7:30 am55 °FOvercast.3 mph88%29.86 "Hg5 mi
7:00 am55 °FOvercast.3 mph94%29.86 "Hg6 mi
6:30 am55 °FOvercast.3 mph94%29.86 "Hg6 mi
6:00 am55 °FOvercast.5 mph94%29.89 "Hg6 mi
5:30 am55 °FMostly cloudy.3 mph94%29.89 "Hg6 mi
5:00 am55 °FOvercast.3 mph94%29.89 "Hg6 mi
4:30 am55 °FOvercast.3 mph94%29.89 "Hg6 mi
4:00 am55 °FOvercast.3 mph94%29.89 "Hg5 mi
3:30 am55 °FMostly cloudy.3 mph88%29.89 "Hg5 mi
3:00 am54 °FOvercast.3 mph94%29.89 "Hg5 mi
2:30 am55 °FOvercast.5 mph94%29.89 "Hg6 mi
2:00 am55 °FOvercast.3 mph94%29.92 "Hg5 mi
1:30 am54 °FOvercast.2 mph94%29.92 "Hg5 mi
1:00 am52 °FPassing clouds.3 mph94%29.92 "Hg6 mi
12:30 am50 °FPassing clouds.2 mph100%29.92 "Hg6 mi
12:00 am50 °FClear.5 mph94%29.95 "Hg6 mi
11:30 pm
Mon, Oct 14
50 °FClear.2 mph88%29.95 "Hg10 mi
10:30 pm52 °FPassing clouds.6 mph88%29.95 "HgN/A
10:00 pm55 °FClear.3 mph88%29.95 "Hg10 mi
9:30 pm55 °FClear.6 mph88%29.98 "Hg10 mi
9:00 pm57 °FClear.12 mph82%29.98 "Hg10 mi
8:30 pm59 °FClear.8 mph82%29.98 "Hg10 mi
8:00 pm57 °FClear.2 mph82%29.98 "Hg10 mi
7:30 pm57 °FClear.6 mph88%29.98 "Hg10 mi
7:00 pm57 °FClear.7 mph88%29.98 "Hg10 mi
6:30 pm63 °FClear.7 mph73%29.98 "Hg10 mi
6:00 pm63 °FSunny.6 mph73%29.98 "Hg10 mi
5:30 pm64 °FSunny.6 mph68%29.98 "Hg10 mi
5:00 pm66 °FSunny.7 mph68%30.01 "Hg10 mi
4:30 pm66 °FPassing clouds.8 mph68%30.01 "HgN/A
4:02 pm68 °FPassing clouds.7 mph64%30.01 "HgN/A
3:30 pm68 °FSunny.7 mph60%30.01 "Hg10 mi
3:00 pm68 °FPassing clouds.7 mph56%30.04 "HgN/A
2:30 pm66 °FPassing clouds.5 mph60%30.04 "HgN/A
2:00 pm66 °FSunny.5 mph56%30.04 "Hg10 mi
1:30 pm64 °FPassing clouds.6 mph64%30.07 "HgN/A
1:00 pm64 °FSunny.6 mph64%30.07 "Hg10 mi
Weather by CustomWeather, © 2019

See weather overview